"Pseudo-MPEC" for ZTF1075

Created 2025 Oct 18 0:35:22 UT using Find_Orb

Click here for an explanation of pseudo-MPECs

 
 Astrometry: 
     ZTF1075*tC2025 10 13.19196700 06 27.170+23 28 49.74   ~ADF5 19.18RUNEOCPI41
     ZTF1075 tC2025 10 13.19231400 06 28.582+23 29 04.31   ~ADF5 19.18RUNEOCPI41
     ZTF1075  C2025 10 13.26962000 12 28.599+24 34 46.22   ~AECo 19.64gUNEOCPI41
     ZTF1075  C2025 10 13.26996700 12 30.305+24 35 04.97   ~AECo 19.64gUNEOCPI41
     ZTF1075 tC2025 10 13.30532600 15 31.889+25 07 08.55   ~ADF5 19.04RUNEOCPI41
     ZTF1075 tC2025 10 13.30567400 15 33.332+25 07 23.89   ~ADF5x19.04RUNEOCPI41
     ZTF1075  C2025 10 13.30579600 15 34.427+25 07 32.03   ~AECo 18.91RUNEOCPI41
     ZTF1075  C2025 10 13.30614300 15 36.292+25 07 50.74   ~AECox18.91RUNEOCPI41

Station data:
(I41) Palomar Mountain--ZTF  (N33.357336 W116.859780)  US/California.
   Observers B. T. Bolin, Z. T. F. Collaboration. Measurers B. T. Bolin,
   Z.-Y. Lin, F. J. Masci. 1.2-m f/2.4 Schmidt.

Orbital elements:  ZTF1075
   Perihelion 2025 Nov 8.184390 +/- 0.638 TT =  4:25:31.2 (JD 2460987.684390)
Epoch 2025 Oct 13.0 TT = JDT 2460961.5   Earth MOID: 0.0008   Ju: 0.1654
M 359.086932692 +/- 1.3             Sa: 0.2410                   AutoNEOCP
n   0.034870673 +/- 0.0492          Peri.  215.741717 +/- 0.29
a   9.278885727 +/- 6.68            Node   202.036139 +/- 0.07
e   0.90240133 +/- 0.0878           Incl.    5.132635 +/- 0.29
P  28.26466                H 28.33  G  0.15   U 10.7
q 0.905606882 +/- 0.00526    Q 17.65216457 +/- 13.4       (J2000 ecliptic)
6 of 8 observations 2025 Oct. 13 (2.7 hr); mean residual 0".79
Residuals in arcseconds: 
251013 I41  .72+  1.2+    251013 I41  .12-  .13+    251013 I41  .29+  1.3-    
251013 I41  .73-  1.2-    251013 I41  .28-  1.3+    251013 I41( .58+  1.8-)   
251013 I41  .14+  .14-    251013 I41( 5.8-  2.7-)   

Ephemerides (geocentric):
Date (UTC) HH   RA             Dec           delta  r     elong  mag " sig PA
---- --------  ------------   ------------  ------ ------ -----  --- --------
2025 10 18 01  10 16 12.406   -00 23 10.61  .03396 .97462  49.3 26??  739 159
2025 10 18 02  10 16 28.267   -00 26 48.75  .03433 .97436  49.3 26??  736 159
2025 10 18 03  10 16 43.805   -00 30 22.32  .03469 .97411  49.2 26??  733 159
2025 10 18 04  10 16 59.029   -00 33 51.47  .03506 .97385  49.2 26??  731 159
2025 10 18 05  10 17 13.949   -00 37 16.33  .03543 .97359  49.2 26??  728 159
2025 10 18 06  10 17 28.574   -00 40 37.04  .03579 .97333  49.1 26??  726 159
2025 10 18 07  10 17 42.914   -00 43 53.71  .03616 .97307  49.1 26??  723 159
2025 10 18 08  10 17 56.977   -00 47 06.48  .03652 .97281  49.1 26??  721 159
2025 10 18 09  10 18 10.772   -00 50 15.45  .03689 .97256  49.0 26??  719 159
2025 10 18 10  10 18 24.306   -00 53 20.73  .03726 .97230  49.0 26??  716 160
2025 10 18 11  10 18 37.587   -00 56 22.45  .03762 .97204  49.0 26??  714 160
2025 10 18 12  10 18 50.623   -00 59 20.68  .03799 .97179  49.0 26??  712 160
2025 10 18 13  10 19 03.420   -01 02 15.55  .03836 .97153  48.9 26??  710 160
2025 10 18 14  10 19 15.986   -01 05 07.14  .03872 .97128  48.9 26??  708 160
2025 10 18 15  10 19 28.327   -01 07 55.54  .03909 .97102  48.9 26??  706 160
2025 10 18 16  10 19 40.449   -01 10 40.84  .03946 .97077  48.9 26??  704 160
2025 10 18 17  10 19 52.359   -01 13 23.13  .03982 .97052  48.9 26??  702 160
2025 10 18 18  10 20 04.062   -01 16 02.48  .04019 .97026  48.9 26??  700 160
2025 10 18 19  10 20 15.565   -01 18 38.99  .04056 .97001  48.8 26??  698 160
2025 10 18 20  10 20 26.871   -01 21 12.72  .04092 .96976  48.8 27??  696 160
2025 10 18 21  10 20 37.988   -01 23 43.75  .04129 .96951  48.8 27??  694 160
2025 10 18 22  10 20 48.920   -01 26 12.16  .04166 .96926  48.8 27??  692 160
2025 10 18 23  10 20 59.671   -01 28 38.00  .04202 .96900  48.8 27??  691 160
2025 10 19 00  10 21 10.247   -01 31 01.34  .04239 .96875  48.8 27??  689 160
2025 10 19 01  10 21 20.652   -01 33 22.26  .04276 .96850  48.8 27??  687 160
2025 10 19 02  10 21 30.890   -01 35 40.80  .04313 .96825  48.8 27??  685 160
2025 10 19 03  10 21 40.967   -01 37 57.04  .04349 .96800  48.7 27??  684 160
2025 10 19 04  10 21 50.885   -01 40 11.03  .04386 .96776  48.7 27??  682 160
2025 10 19 05  10 22 00.650   -01 42 22.82  .04423 .96751  48.7 27??  681 160
2025 10 19 06  10 22 10.264   -01 44 32.47  .04459 .96726  48.7 27??  679 160
2025 10 19 07  10 22 19.732   -01 46 40.03  .04496 .96701  48.7 27??  677 160
2025 10 19 08  10 22 29.058   -01 48 45.56  .04533 .96676  48.7 27??  676 160
2025 10 19 09  10 22 38.244   -01 50 49.10  .04570 .96652  48.7 27??  675 160
2025 10 19 10  10 22 47.294   -01 52 50.69  .04606 .96627  48.7 27??  673 160
2025 10 19 11  10 22 56.212   -01 54 50.40  .04643 .96602  48.7 27??  672 160
2025 10 19 12  10 23 05.000   -01 56 48.25  .04680 .96578  48.7 27??  670 160
2025 10 19 13  10 23 13.662   -01 58 44.30  .04717 .96553  48.7 27??  669 160
2025 10 19 14  10 23 22.201   -02 00 38.58  .04753 .96529  48.7 27??  667 160
2025 10 19 15  10 23 30.620   -02 02 31.14  .04790 .96504  48.7 27??  666 160
2025 10 19 16  10 23 38.921   -02 04 22.01  .04827 .96480  48.7 27??  665 160
2025 10 19 17  10 23 47.107   -02 06 11.23  .04864 .96456  48.7 27??  664 161
2025 10 19 18  10 23 55.182   -02 07 58.85  .04901 .96431  48.7 27??  662 161
2025 10 19 19  10 24 03.146   -02 09 44.90  .04937 .96407  48.7 27??  661 161
2025 10 19 20  10 24 11.004   -02 11 29.40  .04974 .96383  48.7 27??  660 161
2025 10 19 21  10 24 18.757   -02 13 12.41  .05011 .96359  48.7 27??  659 161
2025 10 19 22  10 24 26.407   -02 14 53.94  .05048 .96335  48.7 27??  657 161
2025 10 19 23  10 24 33.958   -02 16 34.03  .05085 .96311  48.7 27??  656 161
2025 10 20 00  10 24 41.411   -02 18 12.71  .05121 .96287  48.7 27??  655 161